Regional Weather Roundup
Issued by NWS

Home | Current Version | Previous Version | Graphics & Text | Print | Product List | Glossary On
Versions: 1 2 3 4 5 6 7 8 9 10 11 12 13 14 15 16 17 18 19 20 21 22 23 24 25 26 27 28 29 30 31 32 33 34 35 36 37 38 39 40 41 42 43 44 45 46 47 48 49 50
000
ASUS43 KOAX 221102
RWRNE

WEATHER ROUNDUP FOR NEBRASKA
NATIONAL WEATHER SERVICE OMAHA NE
600 AM CDT FRI AUG 22 2014

NOTES: SATELLITE DATA IS BEING USED TO AUGMENT CLOUD COVER ABOVE
       12000 FEET.
       "FAIR" INDICATES FEW OR NO CLOUDS BELOW 12,000 FEET WITH NO
       SIGNIFICANT WEATHER AND/OR OBSTRUCTIONS TO VISIBILITY.

  * THESE STATIONS DO NOT REPORT WEATHER SUCH AS RAIN...SNOW OR FOG.

NEZ001>004-019>022-054>056-221200-
NEBRASKA PANHANDLE

CITY           SKY/WX    TMP DP  RH WIND       PRES   REMARKS
SCOTTSBLUFF    CLOUDY    63  53  70 SW5       30.07S
ALLIANCE       CLOUDY    63  52  67 S6        30.06R
CHADRON        PTCLDY    58  51  78 SW10      30.04R
KIMBALL        DRIZZLE   63  56  78 SE7       30.12S
SIDNEY         LGT RAIN  64  59  83 SW9       30.14R
$$

NEZ057>060-069>072-079>082-221200-
SOUTHWEST NEBRASKA

CITY           SKY/WX    TMP DP  RH WIND       PRES   REMARKS
NORTH PLATTE   PTCLDY    63  61  93 W7        30.00R
IMPERIAL       PTCLDY    70  65  84 NW5       30.03R
LEXINGTON      FOG       67  66  97 N5        29.96R VSB 1
MCCOOK         CLEAR     67  65  93 N7        29.95R FOG
OGALLALA       CLOUDY    65  63  90 CALM      30.03R
$$

NEZ005>010-023>029-035>040-094-221200-
NORTH CENTRAL NEBRASKA

CITY           SKY/WX    TMP DP  RH WIND       PRES   REMARKS
VALENTINE      PTCLDY    64  61  90 NW3       29.99R
AINSWORTH      PTCLDY    64  61  92 SE3       29.98R
BROKEN BOW     PTCLDY    66  64  93 NW5       29.97R
O`NEILL        CLEAR     66  65  96 E3        29.96S
ORD            PTCLDY    67  65  93 CALM      29.94R
THEDFORD       PTCLDY    64  63  96 W3        30.01R
$$

NEZ041-046>049-061>064-073>077-083>087-221200-
SOUTH CENTRAL NEBRASKA

CITY           SKY/WX    TMP DP  RH WIND       PRES   REMARKS
GRAND ISLAND   CLEAR     69  67  93 NE5       29.93R
AURORA         CLEAR     69  69 100 CALM      29.92S
HASTINGS       CLEAR     69  65  86 NE7       29.92R
HEBRON         CLEAR     70  65  84 E5        29.90R
HOLDREGE       CLEAR     66  65  94 CALM      29.93R
KEARNEY *      CLEAR     68  66  94 N6        29.93R
YORK           PTCLDY    68 N/A N/A NE3       29.91F
$$

NEZ011>018-030>034-042>045-221200-
NORTHEAST NEBRASKA

CITY           SKY/WX    TMP DP  RH WIND       PRES   REMARKS
NORFOLK        CLEAR     70  68  93 N7        29.92R
ALBION         CLEAR     68  65  91 CALM      29.94R FOG
BLAIR          MOCLDY    75  72  92 CALM      29.90R
FREMONT        PTCLDY    72  70  93 CALM      29.90S
TEKAMAH        PTCLDY    71  69  93 SW6       29.88S
WAYNE          CLEAR     68  67  98 CALM      29.92S
$$

NEZ050>053-065>068-078-088>093-221200-
SOUTHEAST NEBRASKA

CITY           SKY/WX    TMP DP  RH WIND       PRES   REMARKS
LINCOLN        PTCLDY    73  71  93 N5        29.89F
OMAHA EPPLEY   MOCLDY    74  69  85 CALM      29.89S
BEATRICE       PTCLDY    73  69  86 CALM      29.89S
FALLS CITY     MOCLDY    79  72  79 SW5       29.89R THUNDER
NEBRASKA CITY  MOCLDY    76  76  98 SW7       29.89R
PLATTSMOUTH    MOCLDY    72  69  91 CALM      29.89R
$$

NEZ044-045-051>053-067-221200-
OMAHA AREA

CITY           SKY/WX    TMP DP  RH WIND       PRES   REMARKS
OMAHA EPPLEY   MOCLDY    74  69  85 CALM      29.89S
BLAIR          MOCLDY    75  72  92 CALM      29.90R
FREMONT        PTCLDY    72  70  93 CALM      29.90S
MILLARD        MOCLDY    74  72  95 CALM      29.88S FOG
OFFUTT AFB     MOCLDY    73  73 100 CALM      29.87F
PLATTSMOUTH    MOCLDY    72  69  91 CALM      29.89R
WAHOO          FAIR      71  68  90 CALM      29.89S
$$



USA.gov is the U.S. government's official web portal to all federal, state and local government web resources and services.